Regional Weather Roundup
Issued by NWS

Home | Current Version | Previous Version | Graphics & Text | Print | Product List | Glossary On
Versions: 1 2 3 4 5 6 7 8 9 10 11 12 13 14 15 16 17 18 19 20 21 22 23 24 25 26 27 28 29 30 31 32 33 34 35 36 37 38 39 40 41 42 43 44 45 46 47 48 49 50
013
ASUS43 KLMK 271710
RWRKY
KENTUCKY REGIONAL WEATHER ROUNDUP
NATIONAL WEATHER SERVICE LOUISVILLE KY
100 PM EDT WED JUL 27 2016

NOTE "FAIR" INDICATES FEW OR NO CLOUDS BELOW 12,000 FEET
WITH NO SIGNIFICANT WEATHER AND/OR OBSTRUCTIONS TO VISIBILITY.

KYZ001>023-026-027-061>063-070>075-271800-
WESTERN AND SOUTH CENTRAL KENTUCKY

CITY           SKY/WX    TMP DP  RH WIND       PRES   REMARKS
PADUCAH        PTSUNNY   90  76  63 VRB3      29.98S HX 101
HENDERSON      MOSUNNY   90  75  62 CALM      29.98S HX 100
OWENSBORO      MOSUNNY   90  76  63 SW3       30.00S HX 101
HOPKINSVILLE   SUNNY     88  76  66 SW5       30.00S HX  98
BOWLING GREEN  CLOUDY    90  73  57 CALM      30.01S HX  98
GLASGOW        SUNNY     89  74  61 CALM      30.01F HX  98
$$

KYZ024-025-028>034-038-045-046-053-271800-
NORTH CENTRAL KENTUCKY

CITY           SKY/WX    TMP DP  RH WIND       PRES   REMARKS
LOUISVILLE/SDF CLOUDY    87  72  60 SW8       29.99S HX  93
LOUISVILLE/LOU CLOUDY    88  72  58 NW3       30.00S HX  94
FORT KNOX      CLOUDY    81  76  85 SW5       30.00S
$$

KYZ035>037-039>044-047>052-055>060-089>105-271800-
NORTHEAST KENTUCKY

CITY           SKY/WX    TMP DP  RH WIND       PRES   REMARKS
LEXINGTON      MOSUNNY   88  73  61 CALM      30.02F HX  95
COVINGTON      CLOUDY    85  73  67 CALM      30.01F HX  91
FRANKFORT      PTSUNNY   89  74  60 VRB3      30.00F HX  98
$$

KYZ054-064>069-076>088-106>120-271800-
SOUTHEAST KENTUCKY

CITY           SKY/WX    TMP DP  RH WIND       PRES   REMARKS
JACKSON        CLOUDY    87  74  64 VRB3      30.04F HX  95
LONDON         MOSUNNY   88  70  55 CALM      30.04F HX  93
SOMERSET       MOSUNNY   84  72  65 S3        30.05S
MIDDLESBORO    MOSUNNY   91  73  57 CALM      30.04F HX  99
MONTICELLO     SUNNY    N/A N/A N/A W13       30.06S
$$





USA.gov is the U.S. government's official web portal to all federal, state and local government web resources and services.